TimeAKST,TemperatureF,Dew PointF,Humidity,Sea Level PressureIn,VisibilityMPH,Wind Direction,Wind SpeedMPH,Gust SpeedMPH,PrecipitationIn,Events,Conditions,WindDirDegrees,DateUTC
12:37 AM,37.4,33.8,87,29.30,10.0,WNW,13.8,19.6,N/A,,Overcast,290,2012-11-04 08:37:00
12:53 AM,37.9,33.1,83,29.31,10.0,NW,11.5,17.3,N/A,,Overcast,310,2012-11-04 08:53:00
1:04 AM,37.4,33.8,87,29.30,10.0,WNW,13.8,18.4,N/A,,Overcast,300,2012-11-04 09:04:00
1:53 AM,37.0,33.1,86,29.30,10.0,WNW,17.3,21.9,0.00,,Overcast,300,2012-11-04 09:53:00
1:53 AM,37.0,33.1,86,29.29,10.0,WNW,17.3,25.3,0.00,,Overcast,290,2012-11-04 10:53:00
3:17 AM,37.4,32.0,81,29.28,10.0,WNW,18.4,21.9,0.00,Rain-Snow,Light Rain,290,2012-11-04 12:17:00
3:53 AM,36.0,33.1,89,29.28,10.0,WNW,15.0,21.9,0.00,,Overcast,300,2012-11-04 12:53:00
4:53 AM,37.0,33.1,86,29.29,9.0,NW,12.7,-,0.00,Rain,Light Rain,310,2012-11-04 13:53:00
5:53 AM,37.0,33.1,86,29.29,10.0,WNW,16.1,26.5,0.00,Rain,Light Rain,300,2012-11-04 14:53:00
6:53 AM,36.0,33.1,89,29.29,10.0,WNW,17.3,-,0.00,,Overcast,300,2012-11-04 15:53:00
7:08 AM,35.6,33.8,93,29.28,10.0,WNW,19.6,-,N/A,,Overcast,300,2012-11-04 16:08:00
7:53 AM,37.9,32.0,79,29.29,10.0,WNW,15.0,24.2,N/A,,Mostly Cloudy,300,2012-11-04 16:53:00
8:53 AM,37.0,32.0,82,29.29,10.0,NW,13.8,20.7,N/A,,Mostly Cloudy,310,2012-11-04 17:53:00
9:53 AM,37.9,32.0,79,29.30,10.0,WNW,19.6,33.4,N/A,,Mostly Cloudy,290,2012-11-04 18:53:00
10:53 AM,39.0,32.0,76,29.30,10.0,West,23.0,-,N/A,,Mostly Cloudy,280,2012-11-04 19:53:00
11:53 AM,39.0,32.0,76,29.31,10.0,West,20.7,27.6,N/A,,Mostly Cloudy,280,2012-11-04 20:53:00
12:53 PM,39.0,32.0,76,29.31,10.0,WNW,13.8,24.2,N/A,,Mostly Cloudy,300,2012-11-04 21:53:00
1:53 PM,39.9,28.9,65,29.31,10.0,WNW,13.8,21.9,N/A,,Mostly Cloudy,300,2012-11-04 22:53:00
2:53 PM,41.0,27.0,57,29.31,10.0,WNW,16.1,-,N/A,,Mostly Cloudy,300,2012-11-04 23:53:00
3:53 PM,39.9,25.0,55,29.30,10.0,NW,13.8,-,N/A,,Mostly Cloudy,310,2012-11-05 00:53:00
4:53 PM,39.9,26.1,58,29.31,10.0,WNW,20.7,-,N/A,,Overcast,290,2012-11-05 01:53:00
5:53 PM,39.0,27.0,62,29.32,10.0,WNW,20.7,27.6,N/A,,Overcast,290,2012-11-05 02:53:00
6:53 PM,37.9,28.0,68,29.34,10.0,WNW,10.4,17.3,N/A,,Overcast,300,2012-11-05 03:53:00
7:53 PM,39.0,26.1,60,29.35,10.0,WNW,13.8,19.6,N/A,,Overcast,290,2012-11-05 04:53:00
8:53 PM,37.0,27.0,67,29.36,10.0,WNW,10.4,-,N/A,,Overcast,300,2012-11-05 05:53:00
9:53 PM,36.0,28.0,73,29.37,10.0,West,6.9,-,N/A,,Overcast,270,2012-11-05 06:53:00
10:53 PM,35.1,28.9,78,29.39,10.0,NW,12.7,-,N/A,,Mostly Cloudy,310,2012-11-05 07:53:00